Year,Month,Day,Hour,Minute,Value (Times are PST for temperature in C)
2020,05,10,00,00,16.20
2020,05,10,00,01,16.20
2020,05,10,00,02,16.30
2020,05,10,00,03,16.30
2020,05,10,00,04,16.40
2020,05,10,00,05,16.40
2020,05,10,00,06,16.40
2020,05,10,00,07,16.40
2020,05,10,00,08,16.40
2020,05,10,00,09,16.40
2020,05,10,00,10,16.40
2020,05,10,00,11,16.30
2020,05,10,00,12,16.30
2020,05,10,00,13,16.20
2020,05,10,00,14,16.20
2020,05,10,00,15,16.10
2020,05,10,00,16,16.00
2020,05,10,00,17,15.90
2020,05,10,00,18,15.90
2020,05,10,00,19,15.80
2020,05,10,00,20,15.70
2020,05,10,00,21,15.70
2020,05,10,00,22,15.60
2020,05,10,00,23,15.60
2020,05,10,00,24,15.50
2020,05,10,00,25,15.50
2020,05,10,00,26,15.40
2020,05,10,00,27,15.40
2020,05,10,00,28,15.40
2020,05,10,00,29,15.30
2020,05,10,00,30,15.30
2020,05,10,00,31,15.30
2020,05,10,00,32,15.30
2020,05,10,00,33,15.30
2020,05,10,00,34,15.20
2020,05,10,00,35,15.20
2020,05,10,00,36,15.10
2020,05,10,00,37,15.10
2020,05,10,00,38,15.00
2020,05,10,00,39,15.00
2020,05,10,00,40,14.90
2020,05,10,00,41,14.90
2020,05,10,00,42,14.90
2020,05,10,00,43,14.90
2020,05,10,00,44,14.90
2020,05,10,00,45,14.90
2020,05,10,00,46,14.90
2020,05,10,00,47,14.90
2020,05,10,00,48,14.90
2020,05,10,00,49,14.90
2020,05,10,00,50,14.90
2020,05,10,00,51,14.90
2020,05,10,00,52,14.90
2020,05,10,00,53,14.90
2020,05,10,00,54,14.90
2020,05,10,00,55,14.90
2020,05,10,00,56,14.80
2020,05,10,00,57,14.80
2020,05,10,00,58,14.80
2020,05,10,00,59,14.70
2020,05,10,01,00,14.70
2020,05,10,01,01,14.60
2020,05,10,01,02,14.60
2020,05,10,01,03,14.60
2020,05,10,01,04,14.50
2020,05,10,01,05,14.40
2020,05,10,01,06,14.40
2020,05,10,01,07,14.30
2020,05,10,01,08,14.30
2020,05,10,01,09,14.30
2020,05,10,01,10,14.30
2020,05,10,01,11,14.30
2020,05,10,01,12,14.30
2020,05,10,01,13,14.30
2020,05,10,01,14,14.40
2020,05,10,01,15,14.40
2020,05,10,01,16,14.40
2020,05,10,01,17,14.40
2020,05,10,01,18,14.40
2020,05,10,01,19,14.40
2020,05,10,01,20,14.40
2020,05,10,01,21,14.40
2020,05,10,01,22,14.40
2020,05,10,01,23,14.40
2020,05,10,01,24,14.40
2020,05,10,01,25,14.40
2020,05,10,01,26,14.40
2020,05,10,01,27,14.40
2020,05,10,01,28,14.40
2020,05,10,01,29,14.40
2020,05,10,01,30,14.40
2020,05,10,01,31,14.40
2020,05,10,01,32,14.40
2020,05,10,01,33,14.40
2020,05,10,01,34,14.40
2020,05,10,01,35,14.30
2020,05,10,01,36,14.30
2020,05,10,01,37,14.30
2020,05,10,01,38,14.20
2020,05,10,01,39,14.20
2020,05,10,01,40,14.10
2020,05,10,01,41,14.10
2020,05,10,01,42,14.10
2020,05,10,01,43,14.10
2020,05,10,01,44,14.10
2020,05,10,01,45,14.10
2020,05,10,01,46,14.10
2020,05,10,01,47,14.00
2020,05,10,01,48,14.00
2020,05,10,01,49,14.00
2020,05,10,01,50,13.90
2020,05,10,01,51,13.90
2020,05,10,01,52,13.90
2020,05,10,01,53,13.90
2020,05,10,01,54,13.90
2020,05,10,01,55,13.90
2020,05,10,01,56,13.90
2020,05,10,01,57,13.90
2020,05,10,01,58,13.80
2020,05,10,01,59,13.80
2020,05,10,02,00,13.80
2020,05,10,02,01,13.80
2020,05,10,02,02,13.80
2020,05,10,02,03,13.80
2020,05,10,02,04,13.80
2020,05,10,02,05,13.80
2020,05,10,02,06,13.70
2020,05,10,02,07,13.70
2020,05,10,02,08,13.60
2020,05,10,02,09,13.60
2020,05,10,02,10,13.50
2020,05,10,02,11,13.50
2020,05,10,02,12,13.40
2020,05,10,02,13,13.40
2020,05,10,02,14,13.40
2020,05,10,02,15,13.40
2020,05,10,02,16,13.40
2020,05,10,02,17,13.40
2020,05,10,02,18,13.40
2020,05,10,02,19,13.40
2020,05,10,02,20,13.40
2020,05,10,02,21,13.40
2020,05,10,02,22,13.40
2020,05,10,02,23,13.50
2020,05,10,02,24,13.50
2020,05,10,02,25,13.40
2020,05,10,02,26,13.40
2020,05,10,02,27,13.40
2020,05,10,02,28,13.40
2020,05,10,02,29,13.30
2020,05,10,02,30,13.30
2020,05,10,02,31,13.30
2020,05,10,02,32,13.30
2020,05,10,02,33,13.30
2020,05,10,02,34,13.30
2020,05,10,02,35,13.30
2020,05,10,02,36,13.30
2020,05,10,02,37,13.30
2020,05,10,02,38,13.30
2020,05,10,02,39,13.20
2020,05,10,02,40,13.20
2020,05,10,02,41,13.20
2020,05,10,02,42,13.20
2020,05,10,02,43,13.20
2020,05,10,02,44,13.20
2020,05,10,02,45,13.20
2020,05,10,02,46,13.20
2020,05,10,02,47,13.10
2020,05,10,02,48,13.10
2020,05,10,02,49,13.10
2020,05,10,02,50,13.10
2020,05,10,02,51,13.00
2020,05,10,02,52,13.00
2020,05,10,02,53,12.90
2020,05,10,02,54,12.90
2020,05,10,02,55,12.90
2020,05,10,02,56,12.90
2020,05,10,02,57,12.80
2020,05,10,02,58,12.80
2020,05,10,02,59,12.80
2020,05,10,03,00,12.80
2020,05,10,03,01,12.80
2020,05,10,03,02,12.80
2020,05,10,03,03,12.80
2020,05,10,03,04,12.80
2020,05,10,03,05,12.80
2020,05,10,03,06,12.80
2020,05,10,03,07,12.80
2020,05,10,03,08,12.80
2020,05,10,03,09,12.80
2020,05,10,03,10,12.80
2020,05,10,03,11,12.80
2020,05,10,03,12,12.80
2020,05,10,03,13,12.80
2020,05,10,03,14,12.80
2020,05,10,03,15,12.80
2020,05,10,03,16,12.90
2020,05,10,03,17,12.90
2020,05,10,03,18,12.90
2020,05,10,03,19,12.90
2020,05,10,03,20,12.90
2020,05,10,03,21,12.90
2020,05,10,03,22,12.90
2020,05,10,03,23,12.80
2020,05,10,03,24,12.90
2020,05,10,03,25,12.90
2020,05,10,03,26,12.90
2020,05,10,03,27,12.90
2020,05,10,03,28,12.80
2020,05,10,03,29,12.80
2020,05,10,03,30,12.80
2020,05,10,03,31,12.80
2020,05,10,03,32,12.80
2020,05,10,03,33,12.80
2020,05,10,03,34,12.80
2020,05,10,03,35,12.80
2020,05,10,03,36,12.80
2020,05,10,03,37,12.80
2020,05,10,03,38,12.80
2020,05,10,03,39,12.80
2020,05,10,03,40,12.80
2020,05,10,03,41,12.80
2020,05,10,03,42,12.80
2020,05,10,03,43,12.80
2020,05,10,03,44,12.70
2020,05,10,03,45,12.70
2020,05,10,03,46,12.70
2020,05,10,03,47,12.70
2020,05,10,03,48,12.70
2020,05,10,03,49,12.70
2020,05,10,03,50,12.70
2020,05,10,03,51,12.70
2020,05,10,03,52,12.70
2020,05,10,03,53,12.70
2020,05,10,03,54,12.70
2020,05,10,03,55,12.70
2020,05,10,03,56,12.70
2020,05,10,03,57,12.70
2020,05,10,03,58,12.70
2020,05,10,03,59,12.70
2020,05,10,04,00,12.70
2020,05,10,04,01,12.60
2020,05,10,04,02,12.60
2020,05,10,04,03,12.60
2020,05,10,04,04,12.60
2020,05,10,04,05,12.60
2020,05,10,04,06,12.60
2020,05,10,04,07,12.60
2020,05,10,04,08,12.60
2020,05,10,04,09,12.60
2020,05,10,04,10,12.60
2020,05,10,04,11,12.60
2020,05,10,04,12,12.60
2020,05,10,04,13,12.60
2020,05,10,04,14,12.50
2020,05,10,04,15,12.50
2020,05,10,04,16,12.50
2020,05,10,04,17,12.50
2020,05,10,04,18,12.50
2020,05,10,04,19,12.50
2020,05,10,04,20,12.50
2020,05,10,04,21,12.60
2020,05,10,04,22,12.60
2020,05,10,04,23,12.60
2020,05,10,04,24,12.50
2020,05,10,04,25,12.50
2020,05,10,04,26,12.50
2020,05,10,04,27,12.50
2020,05,10,04,28,12.50
2020,05,10,04,29,12.50
2020,05,10,04,30,12.60
2020,05,10,04,31,12.50
2020,05,10,04,32,12.50
2020,05,10,04,33,12.50
2020,05,10,04,34,12.50
2020,05,10,04,35,12.40
2020,05,10,04,36,12.40
2020,05,10,04,37,12.40
2020,05,10,04,38,12.40
2020,05,10,04,39,12.40
2020,05,10,04,40,12.40
2020,05,10,04,41,12.40
2020,05,10,04,42,12.40
2020,05,10,04,43,12.50
2020,05,10,04,44,12.50
2020,05,10,04,45,12.50
2020,05,10,04,46,12.40
2020,05,10,04,47,12.40
2020,05,10,04,48,12.40
2020,05,10,04,49,12.40
2020,05,10,04,50,12.40
2020,05,10,04,51,12.40
2020,05,10,04,52,12.40
2020,05,10,04,53,12.40
2020,05,10,04,54,12.40
2020,05,10,04,55,12.40
2020,05,10,04,56,12.40
2020,05,10,04,57,12.30
2020,05,10,04,58,12.30
2020,05,10,04,59,12.30
2020,05,10,05,00,12.30
2020,05,10,05,01,12.20
2020,05,10,05,02,12.20
2020,05,10,05,03,12.10
2020,05,10,05,04,12.10
2020,05,10,05,05,12.00
2020,05,10,05,06,12.00
2020,05,10,05,07,12.00
2020,05,10,05,08,11.90
2020,05,10,05,09,11.90
2020,05,10,05,10,11.90
2020,05,10,05,11,11.90
2020,05,10,05,12,11.90
2020,05,10,05,13,11.90
2020,05,10,05,14,11.90
2020,05,10,05,15,11.90
2020,05,10,05,16,11.90
2020,05,10,05,17,11.90
2020,05,10,05,18,11.90
2020,05,10,05,19,11.90
2020,05,10,05,20,11.90
2020,05,10,05,21,11.90
2020,05,10,05,22,11.90
2020,05,10,05,23,11.90
2020,05,10,05,24,11.90
2020,05,10,05,25,11.90
2020,05,10,05,26,11.90
2020,05,10,05,27,11.90
2020,05,10,05,28,11.90
2020,05,10,05,29,11.90
2020,05,10,05,30,11.90
2020,05,10,05,31,11.90
2020,05,10,05,32,11.90
2020,05,10,05,33,11.90
2020,05,10,05,34,11.80
2020,05,10,05,35,11.80
2020,05,10,05,36,11.80
2020,05,10,05,37,11.80
2020,05,10,05,38,11.80
2020,05,10,05,39,11.70
2020,05,10,05,40,11.70
2020,05,10,05,41,11.70
2020,05,10,05,42,11.70
2020,05,10,05,43,11.70
2020,05,10,05,44,11.70
2020,05,10,05,45,11.70
2020,05,10,05,46,11.70
2020,05,10,05,47,11.70
2020,05,10,05,48,11.70
2020,05,10,05,49,11.70
2020,05,10,05,50,11.70
2020,05,10,05,51,11.70
2020,05,10,05,52,11.70
2020,05,10,05,53,11.70
2020,05,10,05,54,11.70
2020,05,10,05,55,11.70
2020,05,10,05,56,11.70
2020,05,10,05,57,11.70
2020,05,10,05,58,11.80
2020,05,10,05,59,11.80
2020,05,10,06,00,11.80
2020,05,10,06,01,11.90
2020,05,10,06,02,11.90
2020,05,10,06,03,11.90
2020,05,10,06,04,11.90
2020,05,10,06,05,12.00
2020,05,10,06,06,12.10
2020,05,10,06,07,12.10
2020,05,10,06,08,12.10
2020,05,10,06,09,12.10
2020,05,10,06,10,12.10
2020,05,10,06,11,12.10
2020,05,10,06,12,12.10
2020,05,10,06,13,12.10
2020,05,10,06,14,12.10
2020,05,10,06,15,12.10
2020,05,10,06,16,12.00
2020,05,10,06,17,12.00
2020,05,10,06,18,12.00
2020,05,10,06,19,12.00
2020,05,10,06,20,12.00
2020,05,10,06,21,11.90
2020,05,10,06,22,11.90
2020,05,10,06,23,11.90
2020,05,10,06,24,11.90
2020,05,10,06,25,11.80
2020,05,10,06,26,11.80
2020,05,10,06,27,11.80
2020,05,10,06,28,11.80
2020,05,10,06,29,11.80
2020,05,10,06,30,11.80
2020,05,10,06,31,11.80
2020,05,10,06,32,11.80
2020,05,10,06,33,11.80
2020,05,10,06,34,11.80
2020,05,10,06,35,11.80
2020,05,10,06,36,11.90
2020,05,10,06,37,11.90
2020,05,10,06,38,12.00
2020,05,10,06,39,12.00
2020,05,10,06,40,12.10
2020,05,10,06,41,12.10
2020,05,10,06,42,12.20
2020,05,10,06,43,12.20
2020,05,10,06,44,12.20
2020,05,10,06,45,12.20
2020,05,10,06,46,12.30
2020,05,10,06,47,12.30
2020,05,10,06,48,12.30
2020,05,10,06,49,12.30
2020,05,10,06,50,12.30
2020,05,10,06,51,12.40
2020,05,10,06,52,12.40
2020,05,10,06,53,12.50
2020,05,10,06,54,12.60
2020,05,10,06,55,12.60
2020,05,10,06,56,12.70
2020,05,10,06,57,12.80
2020,05,10,06,58,12.80
2020,05,10,06,59,13.00
2020,05,10,07,00,13.10
2020,05,10,07,01,13.20
2020,05,10,07,02,13.30
2020,05,10,07,03,13.40
2020,05,10,07,04,13.50
2020,05,10,07,05,13.60
2020,05,10,07,06,13.60
2020,05,10,07,07,13.70
2020,05,10,07,08,13.80
2020,05,10,07,09,13.80
2020,05,10,07,10,13.90
2020,05,10,07,11,13.90
2020,05,10,07,12,13.90
2020,05,10,07,13,14.00
2020,05,10,07,14,14.00
2020,05,10,07,15,14.10
2020,05,10,07,16,14.10
2020,05,10,07,17,14.20
2020,05,10,07,18,14.20
2020,05,10,07,19,14.30
2020,05,10,07,20,14.40
2020,05,10,07,21,14.40
2020,05,10,07,22,14.50
2020,05,10,07,23,14.50
2020,05,10,07,24,14.60
2020,05,10,07,25,14.70
2020,05,10,07,26,14.70
2020,05,10,07,27,14.70
2020,05,10,07,28,14.80
2020,05,10,07,29,14.80
2020,05,10,07,30,14.80
2020,05,10,07,31,14.90
2020,05,10,07,32,14.90
2020,05,10,07,33,15.00
2020,05,10,07,34,15.10
2020,05,10,07,35,15.10
2020,05,10,07,36,15.20
2020,05,10,07,37,15.20
2020,05,10,07,38,15.30
2020,05,10,07,39,15.30
2020,05,10,07,40,15.40
2020,05,10,07,41,15.40
2020,05,10,07,42,15.50
2020,05,10,07,43,15.50
2020,05,10,07,44,15.60
2020,05,10,07,45,15.70
2020,05,10,07,46,15.70
2020,05,10,07,47,15.80
2020,05,10,07,48,15.80
2020,05,10,07,49,15.80
2020,05,10,07,50,15.90
2020,05,10,07,51,15.90
2020,05,10,07,52,16.00
2020,05,10,07,53,16.00
2020,05,10,07,54,16.10
2020,05,10,07,55,16.10
2020,05,10,07,56,16.20
2020,05,10,07,57,16.20
2020,05,10,07,58,16.20
2020,05,10,07,59,16.20
2020,05,10,08,00,16.30
2020,05,10,08,01,16.30
2020,05,10,08,02,16.30
2020,05,10,08,03,16.40
2020,05,10,08,04,16.40
2020,05,10,08,05,16.50
2020,05,10,08,06,16.50
2020,05,10,08,07,16.50
2020,05,10,08,08,16.60
2020,05,10,08,09,16.60
2020,05,10,08,10,16.60
2020,05,10,08,11,16.60
2020,05,10,08,12,16.70
2020,05,10,08,13,16.70
2020,05,10,08,14,16.70
2020,05,10,08,15,16.80
2020,05,10,08,16,16.90
2020,05,10,08,17,17.00
2020,05,10,08,18,17.10
2020,05,10,08,19,17.20
2020,05,10,08,20,17.30
2020,05,10,08,21,17.40
2020,05,10,08,22,17.60
2020,05,10,08,23,17.70
2020,05,10,08,24,17.80
2020,05,10,08,25,18.00
2020,05,10,08,26,18.20
2020,05,10,08,27,18.30
2020,05,10,08,28,18.50
2020,05,10,08,29,18.70
2020,05,10,08,30,18.80
2020,05,10,08,31,19.00
2020,05,10,08,32,19.10
2020,05,10,08,33,19.20
2020,05,10,08,34,19.30
2020,05,10,08,35,19.30
2020,05,10,08,36,19.40
2020,05,10,08,37,19.40
2020,05,10,08,38,19.40
2020,05,10,08,39,19.40
2020,05,10,08,40,19.30
2020,05,10,08,41,19.30
2020,05,10,08,42,19.30
2020,05,10,08,43,19.30
2020,05,10,08,44,19.30
2020,05,10,08,45,19.30
2020,05,10,08,46,19.30
2020,05,10,08,47,19.30
2020,05,10,08,48,19.30
2020,05,10,08,49,19.30
2020,05,10,08,50,19.30
2020,05,10,08,51,19.30
2020,05,10,08,52,19.30
2020,05,10,08,53,19.30
2020,05,10,08,54,19.30
2020,05,10,08,55,19.30
2020,05,10,08,56,19.30
2020,05,10,08,57,19.40
2020,05,10,08,58,19.40
2020,05,10,08,59,19.40
2020,05,10,09,00,19.40
2020,05,10,09,01,19.50
2020,05,10,09,02,19.50
2020,05,10,09,03,19.50
2020,05,10,09,04,19.50
2020,05,10,09,05,19.50
2020,05,10,09,06,19.50
2020,05,10,09,07,19.60
2020,05,10,09,08,19.60
2020,05,10,09,09,19.60
2020,05,10,09,10,19.60
2020,05,10,09,11,19.60
2020,05,10,09,12,19.60
2020,05,10,09,13,19.70
2020,05,10,09,14,19.70
2020,05,10,09,15,19.70
2020,05,10,09,16,19.80
2020,05,10,09,17,19.80
2020,05,10,09,18,19.80
2020,05,10,09,19,19.70
2020,05,10,09,20,19.70
2020,05,10,09,21,19.60
2020,05,10,09,22,19.60
2020,05,10,09,23,19.60
2020,05,10,09,24,19.70
2020,05,10,09,25,19.70
2020,05,10,09,26,19.70
2020,05,10,09,27,19.70
2020,05,10,09,28,19.70
2020,05,10,09,29,19.70
2020,05,10,09,30,19.70
2020,05,10,09,31,19.70
2020,05,10,09,32,19.80
2020,05,10,09,33,19.80
2020,05,10,09,34,19.80
2020,05,10,09,35,19.80
2020,05,10,09,36,19.80
2020,05,10,09,37,19.80
2020,05,10,09,38,19.80
2020,05,10,09,39,19.80
2020,05,10,09,40,19.90
2020,05,10,09,41,19.90
2020,05,10,09,42,19.90
2020,05,10,09,43,19.90
2020,05,10,09,44,19.90
2020,05,10,09,45,19.90
2020,05,10,09,46,19.90
2020,05,10,09,47,19.90
2020,05,10,09,48,19.90
2020,05,10,09,49,20.00
2020,05,10,09,50,20.00
2020,05,10,09,51,20.00
2020,05,10,09,52,20.00
2020,05,10,09,53,20.10
2020,05,10,09,54,20.10
2020,05,10,09,55,20.00
2020,05,10,09,56,20.00
2020,05,10,09,57,20.00
2020,05,10,09,58,20.00
2020,05,10,09,59,20.10
2020,05,10,10,00,20.20
2020,05,10,10,01,20.20
2020,05,10,10,02,20.20
2020,05,10,10,03,20.30
2020,05,10,10,04,20.30
2020,05,10,10,05,20.40
2020,05,10,10,06,20.40
2020,05,10,10,07,20.40
2020,05,10,10,08,20.40
2020,05,10,10,09,20.50
2020,05,10,10,10,20.50
2020,05,10,10,11,20.50
2020,05,10,10,12,20.50
2020,05,10,10,13,20.50
2020,05,10,10,14,20.40
2020,05,10,10,15,20.50
2020,05,10,10,16,20.50
2020,05,10,10,17,20.50
2020,05,10,10,18,20.50
2020,05,10,10,19,20.50
2020,05,10,10,20,20.60
2020,05,10,10,21,20.50
2020,05,10,10,22,20.60
2020,05,10,10,23,20.60
2020,05,10,10,24,20.70
2020,05,10,10,25,20.70
2020,05,10,10,26,20.70
2020,05,10,10,27,20.70
2020,05,10,10,28,20.70
2020,05,10,10,29,20.70
2020,05,10,10,30,20.70
2020,05,10,10,31,20.80
2020,05,10,10,32,20.80
2020,05,10,10,33,20.80
2020,05,10,10,34,20.90
2020,05,10,10,35,20.90
2020,05,10,10,36,20.90
2020,05,10,10,37,20.90
2020,05,10,10,38,20.90
2020,05,10,10,39,21.00
2020,05,10,10,40,21.00
2020,05,10,10,41,21.10
2020,05,10,10,42,21.20
2020,05,10,10,43,21.20
2020,05,10,10,44,21.20
2020,05,10,10,45,21.20
2020,05,10,10,46,21.20
2020,05,10,10,47,21.20
2020,05,10,10,48,21.30
2020,05,10,10,49,21.40
2020,05,10,10,50,21.40
2020,05,10,10,51,21.40
2020,05,10,10,52,21.40
2020,05,10,10,53,21.40
2020,05,10,10,54,21.40
2020,05,10,10,55,21.40
2020,05,10,10,56,21.40
2020,05,10,10,57,21.30
2020,05,10,10,58,21.30
2020,05,10,10,59,21.40
2020,05,10,11,00,21.40
2020,05,10,11,01,21.40
2020,05,10,11,02,21.40
2020,05,10,11,03,21.40
2020,05,10,11,04,21.40
2020,05,10,11,05,21.40
2020,05,10,11,06,21.40
2020,05,10,11,07,21.40
2020,05,10,11,08,21.40
2020,05,10,11,09,21.40
2020,05,10,11,10,21.40
2020,05,10,11,11,21.40
2020,05,10,11,12,21.40
2020,05,10,11,13,21.40
2020,05,10,11,14,21.40
2020,05,10,11,15,21.40
2020,05,10,11,16,21.40
2020,05,10,11,17,21.40
2020,05,10,11,18,21.50
2020,05,10,11,19,21.50
2020,05,10,11,20,21.50
2020,05,10,11,21,21.60
2020,05,10,11,22,21.60
2020,05,10,11,23,21.60
2020,05,10,11,24,21.60
2020,05,10,11,25,21.60
2020,05,10,11,26,21.60
2020,05,10,11,27,21.60
2020,05,10,11,28,21.70
2020,05,10,11,29,21.70
2020,05,10,11,30,21.70
2020,05,10,11,31,21.70
2020,05,10,11,32,21.70
2020,05,10,11,33,21.80
2020,05,10,11,34,21.80
2020,05,10,11,35,21.90
2020,05,10,11,36,21.90
2020,05,10,11,37,21.90
2020,05,10,11,38,22.00
2020,05,10,11,39,22.00
2020,05,10,11,40,22.00
2020,05,10,11,41,22.10
2020,05,10,11,42,22.10
2020,05,10,11,43,22.10
2020,05,10,11,44,22.10
2020,05,10,11,45,22.00
2020,05,10,11,46,22.00
2020,05,10,11,47,22.10
2020,05,10,11,48,22.10
2020,05,10,11,49,22.20
2020,05,10,11,50,22.30
2020,05,10,11,51,22.30
2020,05,10,11,52,22.30
2020,05,10,11,53,22.40
2020,05,10,11,54,22.40
2020,05,10,11,55,22.40
2020,05,10,11,56,22.40
2020,05,10,11,57,22.40
2020,05,10,11,58,22.40
2020,05,10,11,59,22.40
2020,05,10,12,00,22.40
2020,05,10,12,01,22.40
2020,05,10,12,02,22.50
2020,05,10,12,03,22.50
2020,05,10,12,04,22.60
2020,05,10,12,05,22.60
2020,05,10,12,06,22.50
2020,05,10,12,07,22.40
2020,05,10,12,08,22.40
2020,05,10,12,09,22.40
2020,05,10,12,10,22.40
2020,05,10,12,11,22.40
2020,05,10,12,12,22.40
2020,05,10,12,13,22.40
2020,05,10,12,14,22.50
2020,05,10,12,15,22.50
2020,05,10,12,16,22.60
2020,05,10,12,17,22.60
2020,05,10,12,18,22.70
2020,05,10,12,19,22.70
2020,05,10,12,20,22.80
2020,05,10,12,21,22.80
2020,05,10,12,22,22.90
2020,05,10,12,23,22.90
2020,05,10,12,24,22.90
2020,05,10,12,25,22.90
2020,05,10,12,26,22.90
2020,05,10,12,27,22.90
2020,05,10,12,28,22.90
2020,05,10,12,29,22.90
2020,05,10,12,30,22.90
2020,05,10,12,31,22.90
2020,05,10,12,32,22.90
2020,05,10,12,33,22.90
2020,05,10,12,34,22.90
2020,05,10,12,35,22.90
2020,05,10,12,36,22.90
2020,05,10,12,37,22.90
2020,05,10,12,38,23.00
2020,05,10,12,39,23.00
2020,05,10,12,40,23.10
2020,05,10,12,41,23.10
2020,05,10,12,42,23.20
2020,05,10,12,43,23.30
2020,05,10,12,44,23.30
2020,05,10,12,45,23.40
2020,05,10,12,46,23.40
2020,05,10,12,47,23.50
2020,05,10,12,48,23.60
2020,05,10,12,49,23.80
2020,05,10,12,50,23.80
2020,05,10,12,51,23.80
2020,05,10,12,52,23.80
2020,05,10,12,53,23.80
2020,05,10,12,54,23.90
2020,05,10,12,55,23.90
2020,05,10,12,56,24.00
2020,05,10,12,57,24.10
2020,05,10,12,58,24.10
2020,05,10,12,59,24.10
2020,05,10,13,00,24.10
2020,05,10,13,01,24.10
2020,05,10,13,02,24.10
2020,05,10,13,03,24.10
2020,05,10,13,04,24.10
2020,05,10,13,05,24.10
2020,05,10,13,06,24.10
2020,05,10,13,07,24.10
2020,05,10,13,08,24.10
2020,05,10,13,09,24.20
2020,05,10,13,10,24.20
2020,05,10,13,11,24.30
2020,05,10,13,12,24.30
2020,05,10,13,13,24.30
2020,05,10,13,14,24.40
2020,05,10,13,15,24.40
2020,05,10,13,16,24.40
2020,05,10,13,17,24.40
2020,05,10,13,18,24.40
2020,05,10,13,19,24.40
2020,05,10,13,20,24.40
2020,05,10,13,21,24.40
2020,05,10,13,22,24.40
2020,05,10,13,23,24.50
2020,05,10,13,24,24.60
2020,05,10,13,25,24.60
2020,05,10,13,26,24.60
2020,05,10,13,27,24.70
2020,05,10,13,28,24.70
2020,05,10,13,29,24.60
2020,05,10,13,30,24.50
2020,05,10,13,31,24.40
2020,05,10,13,32,24.30
2020,05,10,13,33,24.30
2020,05,10,13,34,24.30
2020,05,10,13,35,24.30
2020,05,10,13,36,24.30
2020,05,10,13,37,24.30
2020,05,10,13,38,24.30
2020,05,10,13,39,24.30
2020,05,10,13,40,24.20
2020,05,10,13,41,24.20
2020,05,10,13,42,24.20
2020,05,10,13,43,24.20
2020,05,10,13,44,24.20
2020,05,10,13,45,24.20
2020,05,10,13,46,24.30
2020,05,10,13,47,24.30
2020,05,10,13,48,24.30
2020,05,10,13,49,24.30
2020,05,10,13,50,24.30
2020,05,10,13,51,24.40
2020,05,10,13,52,24.40
2020,05,10,13,53,24.50
2020,05,10,13,54,24.60
2020,05,10,13,55,24.60
2020,05,10,13,56,24.70
2020,05,10,13,57,24.70
2020,05,10,13,58,24.60
2020,05,10,13,59,24.60
2020,05,10,14,00,24.60
2020,05,10,14,01,24.60
2020,05,10,14,02,24.60
2020,05,10,14,03,24.70
2020,05,10,14,04,24.70
2020,05,10,14,05,24.70
2020,05,10,14,06,24.70
2020,05,10,14,07,24.70
2020,05,10,14,08,24.70
2020,05,10,14,09,24.70
2020,05,10,14,10,24.80
2020,05,10,14,11,24.80
2020,05,10,14,12,24.90
2020,05,10,14,13,25.00
2020,05,10,14,14,25.10
2020,05,10,14,15,25.20
2020,05,10,14,16,25.40
2020,05,10,14,17,25.50
2020,05,10,14,18,25.50
2020,05,10,14,19,25.40
2020,05,10,14,20,25.30
2020,05,10,14,21,25.30
2020,05,10,14,22,25.30
2020,05,10,14,23,25.30
2020,05,10,14,24,25.40
2020,05,10,14,25,25.40
2020,05,10,14,26,25.50
2020,05,10,14,27,25.60
2020,05,10,14,28,25.60
2020,05,10,14,29,25.70
2020,05,10,14,30,25.70
2020,05,10,14,31,25.70
2020,05,10,14,32,25.80
2020,05,10,14,33,25.80
2020,05,10,14,34,25.80
2020,05,10,14,35,25.80
2020,05,10,14,36,25.80
2020,05,10,14,37,25.80
2020,05,10,14,38,25.90
2020,05,10,14,39,25.90
2020,05,10,14,40,26.00
2020,05,10,14,41,26.00
2020,05,10,14,42,26.00
2020,05,10,14,43,25.90
2020,05,10,14,44,25.90
2020,05,10,14,45,25.80
2020,05,10,14,46,25.80
2020,05,10,14,47,25.90
2020,05,10,14,48,26.00
2020,05,10,14,49,26.10
2020,05,10,14,50,26.10
2020,05,10,14,51,26.10
2020,05,10,14,52,26.10
2020,05,10,14,53,26.10
2020,05,10,14,54,26.00
2020,05,10,14,55,25.90
2020,05,10,14,56,26.00
2020,05,10,14,57,26.00
2020,05,10,14,58,26.10
2020,05,10,14,59,26.20
2020,05,10,15,00,26.30
2020,05,10,15,01,26.30
2020,05,10,15,02,26.30
2020,05,10,15,03,26.20
2020,05,10,15,04,26.20
2020,05,10,15,05,26.30
2020,05,10,15,06,26.30
2020,05,10,15,07,26.30
2020,05,10,15,08,26.40
2020,05,10,15,09,26.50
2020,05,10,15,10,26.60
2020,05,10,15,11,26.70
2020,05,10,15,12,26.80
2020,05,10,15,13,26.70
2020,05,10,15,14,26.70
2020,05,10,15,15,26.50
2020,05,10,15,16,26.40
2020,05,10,15,17,26.30
2020,05,10,15,18,26.30
2020,05,10,15,19,26.30
2020,05,10,15,20,26.40
2020,05,10,15,21,26.50
2020,05,10,15,22,26.60
2020,05,10,15,23,26.60
2020,05,10,15,24,26.60
2020,05,10,15,25,26.60
2020,05,10,15,26,26.60
2020,05,10,15,27,26.60
2020,05,10,15,28,26.60
2020,05,10,15,29,26.70
2020,05,10,15,30,26.80
2020,05,10,15,31,26.80
2020,05,10,15,32,26.80
2020,05,10,15,33,26.90
2020,05,10,15,34,27.00
2020,05,10,15,35,27.00
2020,05,10,15,36,27.00
2020,05,10,15,37,27.10
2020,05,10,15,38,27.00
2020,05,10,15,39,27.00
2020,05,10,15,40,26.90
2020,05,10,15,41,26.90
2020,05,10,15,42,26.90
2020,05,10,15,43,26.90
2020,05,10,15,44,26.90
2020,05,10,15,45,26.90
2020,05,10,15,46,26.90
2020,05,10,15,47,26.90
2020,05,10,15,48,27.00
2020,05,10,15,49,27.00
2020,05,10,15,50,27.10
2020,05,10,15,51,27.10
2020,05,10,15,52,27.10
2020,05,10,15,53,27.00
2020,05,10,15,54,27.00
2020,05,10,15,55,26.90
2020,05,10,15,56,26.90
2020,05,10,15,57,26.80
2020,05,10,15,58,26.80
2020,05,10,15,59,26.80
2020,05,10,16,00,26.90
2020,05,10,16,01,26.90
2020,05,10,16,02,26.90
2020,05,10,16,03,27.00
2020,05,10,16,04,27.10
2020,05,10,16,05,27.10
2020,05,10,16,06,27.10
2020,05,10,16,07,27.20
2020,05,10,16,08,27.20
2020,05,10,16,09,27.30
2020,05,10,16,10,27.20
2020,05,10,16,11,27.20
2020,05,10,16,12,27.30
2020,05,10,16,13,27.30
2020,05,10,16,14,27.20
2020,05,10,16,15,27.10
2020,05,10,16,16,27.10
2020,05,10,16,17,27.00
2020,05,10,16,18,27.00
2020,05,10,16,19,26.90
2020,05,10,16,20,26.90
2020,05,10,16,21,26.90
2020,05,10,16,22,26.80
2020,05,10,16,23,26.80
2020,05,10,16,24,26.80
2020,05,10,16,25,26.70
2020,05,10,16,26,26.60
2020,05,10,16,27,26.60
2020,05,10,16,28,26.50
2020,05,10,16,29,26.40
2020,05,10,16,30,26.30
2020,05,10,16,31,26.30
2020,05,10,16,32,26.20
2020,05,10,16,33,26.20
2020,05,10,16,34,26.10
2020,05,10,16,35,26.00
2020,05,10,16,36,26.00
2020,05,10,16,37,25.90
2020,05,10,16,38,25.90
2020,05,10,16,39,25.90
2020,05,10,16,40,25.90
2020,05,10,16,41,25.90
2020,05,10,16,42,25.90
2020,05,10,16,43,25.90
2020,05,10,16,44,25.90
2020,05,10,16,45,25.90
2020,05,10,16,46,25.80
2020,05,10,16,47,25.80
2020,05,10,16,48,25.80
2020,05,10,16,49,25.90
2020,05,10,16,50,25.90
2020,05,10,16,51,25.90
2020,05,10,16,52,26.00
2020,05,10,16,53,26.00
2020,05,10,16,54,26.10
2020,05,10,16,55,26.20
2020,05,10,16,56,26.20
2020,05,10,16,57,26.30
2020,05,10,16,58,26.40
2020,05,10,16,59,26.40
2020,05,10,17,00,26.40
2020,05,10,17,01,26.50
2020,05,10,17,02,26.50
2020,05,10,17,03,26.50
2020,05,10,17,04,26.50
2020,05,10,17,05,26.50
2020,05,10,17,06,26.50
2020,05,10,17,07,26.40
2020,05,10,17,08,26.30
2020,05,10,17,09,26.30
2020,05,10,17,10,26.40
2020,05,10,17,11,26.40
2020,05,10,17,12,26.40
2020,05,10,17,13,26.30
2020,05,10,17,14,26.30
2020,05,10,17,15,26.30
2020,05,10,17,16,26.30
2020,05,10,17,17,26.30
2020,05,10,17,18,26.40
2020,05,10,17,19,26.40